KB7BSA Weather Reports


time (UTC)temp
C
wind
direction
speed
KPH
gust
KPH
rain 1hr
cm
rain 24hr
cm
rain mn
cm
humidity
%
barometer
mb
20260906083044 22 227 0.0 0.0 0.00 0.00 0.00 25 1090.0
20260906081542 22 220 0.0 0.0 0.00 0.00 0.00 27 1090.0
20260906080036 22 253 0.0 0.0 0.00 0.00 0.00 30 1090.0
20260906074536 22 234 0.0 0.0 0.00 0.00 0.00 34 1090.0
20260906073030 22 198 0.0 0.0 0.00 0.00 0.00 46 1090.0
20260906071528 23 159 0.0 0.0 0.00 0.00 0.00 55 1090.0
20260906070027 23 88 0.0 0.0 0.00 0.00 0.00 58 1090.0
20260906064533 23 88 0.0 0.0 0.00 0.00 0.00 54 1090.0
20260906063025 23 88 0.0 0.0 0.00 0.00 0.00 56 1090.0
20260906061526 23 88 0.0 0.0 0.00 0.00 0.00 55 1090.0
20260906060023 23 88 0.0 0.0 0.00 0.00 0.00 52 1090.0
20260906054521 23 88 0.0 0.0 0.00 0.00 0.00 49 1090.0
20260906053025 23 88 0.0 0.0 0.00 0.00 0.00 45 1090.0
20260906051517 23 89 0.0 0.0 0.00 0.00 0.00 51 1090.0
20260906050044 23 87 0.0 0.0 0.00 0.00 0.00 57 1090.0
20260906044516 23 86 0.0 0.0 0.00 0.00 0.00 57 1090.0
20260906043016 24 88 0.0 0.0 0.00 0.00 0.00 58 1090.0
20260906041517 24 88 0.0 0.0 0.00 0.00 0.00 61 1090.0
20260906040016 24 86 0.0 3.2 0.00 0.00 0.00 61 1090.0
20260906034514 24 84 0.0 3.2 0.00 0.00 0.00 60 1090.0
20260906033019 24 84 0.0 3.2 0.00 0.00 0.00 60 1090.0
20260906031519 24 81 1.6 4.8 0.00 0.00 0.00 60 1090.0
20260906030014 25 87 1.6 3.2 0.00 0.00 0.00 64 1090.0
20260906024512 25 84 1.6 3.2 0.00 0.00 0.00 64 1090.0
20260906023011 25 84 1.6 3.2 0.00 0.00 0.00 64 1090.0
20260906021511 25 84 0.0 0.0 0.00 0.00 0.00 65 1090.0
20260906020011 25 84 0.0 0.0 0.00 0.00 0.00 64 1090.0
20260906014511 25 83 0.0 0.0 0.00 0.00 0.00 65 1090.0
20260906013011 25 64 0.0 0.0 0.00 0.00 0.00 66 1090.0
20260906011510 26 64 0.0 0.0 0.00 0.00 0.00 67 1090.0
20260906010010 26 64 0.0 0.0 0.00 0.00 0.00 67 1090.0
20260906004509 26 64 0.0 0.0 0.00 0.00 0.00 66 1090.0
20260906003008 26 217 0.0 0.0 0.00 0.00 0.00 67 1090.0
20260906001508 26 217 0.0 0.0 0.00 0.00 0.00 67 1090.0
20260906000008 27 219 0.0 0.0 0.00 0.00 0.00 69 1090.0
20260905234506 27 200 0.0 0.0 0.00 0.00 0.00 69 1090.0
20260905233012 27 224 0.0 0.0 0.00 0.00 0.00 68 1090.0
20260905231505 27 224 0.0 0.0 0.00 0.00 0.00 68 1090.0
20260905230006 27 230 0.0 0.0 0.00 0.00 0.00 68 1090.0
20260905224508 27 219 0.0 0.0 0.00 0.00 0.00 67 1090.0
20260905223005 27 218 0.0 0.0 0.00 0.00 0.00 66 1090.0
20260905221506 25 186 0.0 0.0 0.00 0.00 0.00 61 1090.0
20260905220004 23 207 0.0 0.0 0.00 0.00 0.00 53 1090.0
20260905214502 22 207 0.0 0.0 0.00 0.00 0.00 60 1090.0
20260905213108 23 236 0.0 0.0 0.00 0.00 0.00 72 1090.0
20260905211600 26 250 0.0 1.6 0.00 0.00 0.00 64 1090.0
20260905210055 30 223 0.0 8.0 0.00 0.00 0.00 56 1090.0
20260905204553 33 251 0.0 1.6 0.00 0.00 0.00 52 1090.0
20260905203048 35 79 1.6 9.7 0.00 0.00 0.00 46 1090.0
20260905201542 36 287 0.0 0.0 0.00 0.00 0.00 46 1090.0
20260905200043 36 298 0.0 0.0 0.00 0.00 0.00 49 1090.0
20260905194529 36 213 0.0 1.6 0.00 0.00 0.00 50 1090.0
20260905193029 35 183 0.0 0.0 0.00 0.00 0.00 48 1090.0
20260905191520 35 195 0.0 0.0 0.00 0.00 0.00 52 1090.0
20260905190015 35 182 0.0 1.6 0.00 0.00 0.00 52 1090.0
20260905184515 35 283 0.0 1.6 0.00 0.00 0.00 48 1090.0
20260905183003 35 340 0.0 1.6 0.00 0.00 0.00 49 1090.0
20260905181558 35 219 0.0 3.2 0.00 0.00 0.00 51 1090.0
20260905180052 34 228 0.0 6.4 0.00 0.00 0.00 55 1090.0
20260905174549 33 148 0.0 4.8 0.00 0.00 0.00 53 1090.0
20260905173037 33 308 0.0 0.0 0.00 0.00 0.00 57 1090.0
20260905171534 33 85 0.0 3.2 0.00 0.00 0.00 56 1090.0
20260905170024 32 226 0.0 6.4 0.00 0.00 0.00 58 1090.0
20260905164515 32 350 0.0 4.8 0.00 0.00 0.00 60 1090.0
20260905163008 31 260 0.0 0.0 0.00 0.00 0.00 64 1090.0
20260905161503 30 253 0.0 0.0 0.00 0.00 0.00 66 1090.0
20260905160104 30 274 0.0 0.0 0.00 0.00 0.00 66 1090.0
20260905154556 29 286 0.0 0.0 0.00 0.00 0.00 67 1090.0
20260905153054 28 263 0.0 0.0 0.00 0.00 0.00 67 1090.0
20260905151549 27 315 0.0 0.0 0.00 0.00 0.00 67 1090.0
20260905150046 27 317 0.0 0.0 0.00 0.00 0.00 67 1090.0
20260905144550 26 320 0.0 0.0 0.00 0.00 0.00 67 1090.0
20260905143041 26 101 0.0 0.0 0.00 0.00 0.00 66 1090.0
20260905141601 26 101 0.0 0.0 0.00 0.00 0.00 65 1090.0
20260905140039 25 101 0.0 0.0 0.00 0.00 0.00 63 1090.0
20260905134534 25 101 0.0 0.0 0.00 0.00 0.00 59 1090.0
20260905133049 25 101 0.0 0.0 0.00 0.00 0.00 61 1090.0
20260905131549 25 101 0.0 0.0 0.00 0.00 0.00 64 1090.0
20260905130032 25 101 0.0 0.0 0.00 0.00 0.00 64 1090.0
20260905124530 25 101 0.0 0.0 0.00 0.00 0.00 62 1090.0
20260905123028 -17 0.0 0.0 0.00 0.00 0.00 1090.0
20260905121521 -17 0.0 0.0 0.00 0.00 0.00 1090.0
20260905120017 -17 0.0 0.0 0.00 0.00 0.00 1090.0
20260905114512 -17 0.0 0.0 0.00 0.00 0.00 1090.0
20260905113013 -17 0.0 0.0 0.00 0.00 0.00 1090.0
20260905111503 -17 0.0 0.0 0.00 0.00 0.00 1090.0
20260905110100 -17 0.0 0.0 0.00 0.00 0.00 1090.0
20260905104556 -17 0.0 0.0 0.00 0.00 0.00 1090.0
20260905103051 -17 0.0 0.0 0.00 0.00 0.00 1090.0
20260905101547 -17 0.0 0.0 0.00 0.00 0.00 1090.0
20260905100059 -17 0.0 0.0 0.00 0.00 0.00 1090.0
20260905094537 -17 0.0 0.0 0.00 0.00 0.00 1090.0
20260905093032 -17 0.0 0.0 0.00 0.00 0.00 1090.0
20260905091526 -17 0.0 0.0 0.00 0.00 0.00 1090.0
20260905090022 -17 0.0 0.0 0.00 0.00 0.00 1090.0
20260905084518 -17 0.0 0.0 0.00 0.00 0.00 1090.0